AAL1954 KMIA-KMCO

Flight info

Callsign AAL1954
Flight time 0h 37m
Altitude 19000
Route FLMGO2 WAPOM MUNGI1
Aircraft A319/M-SDE3FGHIRWY/LB1

Departure

Time 2026-04-26 15:40
Airport Miami International Airport (KMIA)

Arrival

Time 2026-04-26 16:17
Airport Orlando International Airport (KMCO)
Time Latitude Longitude Altitude Speed Heading
2026-04-26 15:29 25.79715 -80.28525 15 ft 0 kts 26°
2026-04-26 15:31 25.79714 -80.28525 15 ft 1 kts 26°
2026-04-26 15:31 25.79679 -80.28542 15 ft 3 kts 341°
2026-04-26 15:31 25.79665 -80.28529 15 ft 3 kts 281°
2026-04-26 15:32 25.79666 -80.28497 15 ft 0 kts 263°
2026-04-26 15:34 25.79666 -80.28498 15 ft 1 kts 263°
2026-04-26 15:34 25.79661 -80.28540 17 ft 11 kts 263°
2026-04-26 15:35 25.79649 -80.28637 15 ft 14 kts 261°
2026-04-26 15:35 25.79639 -80.28753 15 ft 16 kts 275°
2026-04-26 15:35 25.79717 -80.28818 16 ft 16 kts
2026-04-26 15:35 25.79836 -80.28821 15 ft 18 kts
2026-04-26 15:36 25.79958 -80.28830 16 ft 15 kts 353°
2026-04-26 15:36 25.80015 -80.28912 16 ft 15 kts 264°
2026-04-26 15:36 25.80007 -80.29037 17 ft 17 kts 269°
2026-04-26 15:36 25.80002 -80.29174 16 ft 18 kts 266°
2026-04-26 15:37 25.79995 -80.29323 16 ft 20 kts 268°
2026-04-26 15:37 25.79990 -80.29488 14 ft 22 kts 267°
2026-04-26 15:37 25.79984 -80.29665 14 ft 23 kts 266°
2026-04-26 15:37 25.79975 -80.29809 14 ft 19 kts 267°
2026-04-26 15:38 25.79972 -80.29964 13 ft 21 kts 275°
2026-04-26 15:38 25.80015 -80.30105 15 ft 15 kts 300°
2026-04-26 15:38 25.80076 -80.30094 14 ft 11 kts 83°
2026-04-26 15:38 25.80075 -80.30055 13 ft 0 kts 86°
2026-04-26 15:39 25.80075 -80.30053 13 ft 3 kts 86°
2026-04-26 15:39 25.80087 -80.29735 14 ft 84 kts 88°
2026-04-26 15:39 25.80126 -80.28809 18 ft 151 kts 88°
2026-04-26 15:39 25.80153 -80.27974 237 ft 167 kts 89°
2026-04-26 15:40 25.80279 -80.26153 1050 ft 183 kts 86°
2026-04-26 15:40 25.80400 -80.24739 1734 ft 193 kts 86°
2026-04-26 15:40 25.80593 -80.23169 2324 ft 216 kts 84°
2026-04-26 15:40 25.80712 -80.21407 2913 ft 239 kts 88°
2026-04-26 15:41 25.80879 -80.19475 3562 ft 264 kts 77°
2026-04-26 15:41 25.81663 -80.17618 4448 ft 278 kts 53°
2026-04-26 15:41 25.83185 -80.16264 4963 ft 280 kts 24°
2026-04-26 15:41 25.85103 -80.15880 5821 ft 284 kts 360°
2026-04-26 15:42 25.87086 -80.15852 6955 ft 286 kts
2026-04-26 15:42 25.89078 -80.15859 8031 ft 287 kts 353°
2026-04-26 15:42 25.91033 -80.16310 9148 ft 287 kts 341°
2026-04-26 15:42 25.92942 -80.16960 10222 ft 287 kts 341°
2026-04-26 15:43 25.94864 -80.17625 11025 ft 298 kts 340°
2026-04-26 15:43 25.96920 -80.18346 11432 ft 321 kts 340°
2026-04-26 15:43 26.00810 -80.20976 13022 ft 334 kts 317°
2026-04-26 15:44 26.02545 -80.22697 13926 ft 336 kts 318°
2026-04-26 15:44 26.06095 -80.26223 15481 ft 344 kts 317°
2026-04-26 15:44 26.07890 -80.28003 16245 ft 348 kts 318°
2026-04-26 15:45 26.11548 -80.31633 17736 ft 356 kts 318°
2026-04-26 15:45 26.13382 -80.33454 18440 ft 360 kts 318°
2026-04-26 15:46 26.17184 -80.37233 19774 ft 367 kts 317°
2026-04-26 15:46 26.19075 -80.39115 20441 ft 370 kts 317°
2026-04-26 15:46 26.21005 -80.41037 21115 ft 373 kts 317°
2026-04-26 15:46 26.22351 -80.42289 21562 ft 375 kts 323°
2026-04-26 15:47 26.25356 -80.44216 21950 ft 378 kts 333°
2026-04-26 15:47 26.30134 -80.46736 21991 ft 380 kts 333°
2026-04-26 15:47 26.32524 -80.47995 21988 ft 380 kts 333°
2026-04-26 15:48 26.34913 -80.49256 21988 ft 380 kts 333°
2026-04-26 15:48 26.37334 -80.50538 21986 ft 380 kts 333°
2026-04-26 15:48 26.39775 -80.51841 21989 ft 399 kts 333°
2026-04-26 15:48 26.42332 -80.53207 21986 ft 416 kts 333°
2026-04-26 15:49 26.44960 -80.54609 21981 ft 431 kts 333°
2026-04-26 15:49 26.47709 -80.56067 21986 ft 444 kts 334°
2026-04-26 15:49 26.50719 -80.57200 21987 ft 456 kts 342°
2026-04-26 15:49 26.53791 -80.58168 21986 ft 459 kts 342°
2026-04-26 15:50 26.56873 -80.59139 21995 ft 460 kts 342°
2026-04-26 15:50 26.59924 -80.60103 21984 ft 461 kts 342°
2026-04-26 15:50 26.63055 -80.61095 21986 ft 462 kts 342°
2026-04-26 15:50 26.66153 -80.62077 21986 ft 462 kts 342°
2026-04-26 15:51 26.69204 -80.63048 21988 ft 462 kts 342°
2026-04-26 15:51 26.72294 -80.64034 21989 ft 462 kts 342°
2026-04-26 15:51 26.75383 -80.65018 21988 ft 462 kts 342°
2026-04-26 15:51 26.78510 -80.66013 21987 ft 462 kts 342°
2026-04-26 15:52 26.81612 -80.67000 21987 ft 462 kts 342°
2026-04-26 15:52 26.84701 -80.67982 21985 ft 462 kts 342°
2026-04-26 15:52 26.87791 -80.68968 21992 ft 462 kts 342°
2026-04-26 15:52 26.89836 -80.69622 21987 ft 462 kts 342°
2026-04-26 15:53 26.92918 -80.70634 21977 ft 462 kts 341°
2026-04-26 15:53 26.95984 -80.71734 21972 ft 462 kts 340°
2026-04-26 15:53 26.99025 -80.72896 21973 ft 462 kts 339°
2026-04-26 15:53 27.03052 -80.74481 21973 ft 462 kts 339°
2026-04-26 15:54 27.05100 -80.75290 21976 ft 462 kts 339°
2026-04-26 15:54 27.08135 -80.76479 21973 ft 463 kts 339°
2026-04-26 15:54 27.11186 -80.77653 21976 ft 463 kts 339°
2026-04-26 15:54 27.14236 -80.78811 21976 ft 463 kts 339°
2026-04-26 15:55 27.17286 -80.79963 21983 ft 463 kts 339°
2026-04-26 15:55 27.20341 -80.81116 21977 ft 463 kts 340°
2026-04-26 15:55 27.23404 -80.82270 21974 ft 464 kts 340°
2026-04-26 15:55 27.26465 -80.83423 21979 ft 464 kts 340°
2026-04-26 15:56 27.29530 -80.84582 21982 ft 465 kts 340°
2026-04-26 15:56 27.32603 -80.85738 21982 ft 465 kts 340°
2026-04-26 15:56 27.35695 -80.86796 21984 ft 465 kts 342°
2026-04-26 15:56 27.38823 -80.87752 21985 ft 466 kts 343°
2026-04-26 15:57 27.41970 -80.88641 21985 ft 466 kts 344°
2026-04-26 15:57 27.45119 -80.89508 21985 ft 466 kts 344°
2026-04-26 15:57 27.48266 -80.90380 21986 ft 466 kts 344°
2026-04-26 15:57 27.50351 -80.90972 21984 ft 466 kts 343°
2026-04-26 15:58 27.54551 -80.92199 21983 ft 465 kts 343°
2026-04-26 15:58 27.57669 -80.93132 21986 ft 465 kts 343°
2026-04-26 15:58 27.60801 -80.94083 21988 ft 465 kts 343°
2026-04-26 15:58 27.63923 -80.95031 21988 ft 464 kts 343°
2026-04-26 15:59 27.67041 -80.95975 21987 ft 464 kts 343°
2026-04-26 15:59 27.70133 -80.96906 21860 ft 452 kts 343°
2026-04-26 15:59 27.73101 -80.97792 21728 ft 429 kts 343°
2026-04-26 15:59 27.75928 -80.98634 21600 ft 410 kts 343°
2026-04-26 16:00 27.78629 -80.99434 21482 ft 393 kts 343°
2026-04-26 16:00 27.81226 -81.00201 21354 ft 380 kts 343°
2026-04-26 16:00 27.83761 -81.00957 21054 ft 372 kts 342°
2026-04-26 16:00 27.86251 -81.01702 20588 ft 368 kts 342°
2026-04-26 16:01 27.88715 -81.02446 20136 ft 366 kts 342°
2026-04-26 16:01 27.91166 -81.03189 19662 ft 363 kts 342°
2026-04-26 16:01 27.93591 -81.03946 19193 ft 360 kts 339°
2026-04-26 16:01 27.95930 -81.04929 18728 ft 357 kts 337°
2026-04-26 16:02 27.98248 -81.05917 18278 ft 355 kts 337°
2026-04-26 16:02 28.00552 -81.06892 17772 ft 353 kts 337°
2026-04-26 16:02 28.02845 -81.07858 17264 ft 350 kts 338°
2026-04-26 16:02 28.04388 -81.08506 16937 ft 349 kts 338°
2026-04-26 16:03 28.07394 -81.09767 16284 ft 346 kts 338°
2026-04-26 16:03 28.09639 -81.10722 15826 ft 344 kts 337°
2026-04-26 16:03 28.11871 -81.11699 15355 ft 343 kts 336°
2026-04-26 16:03 28.14086 -81.12685 14899 ft 341 kts 336°
2026-04-26 16:04 28.16292 -81.13666 14445 ft 340 kts 336°
2026-04-26 16:04 28.18480 -81.14636 14013 ft 338 kts 336°
2026-04-26 16:04 28.20673 -81.15597 13552 ft 336 kts 337°
2026-04-26 16:04 28.22851 -81.16546 13082 ft 334 kts 337°
2026-04-26 16:05 28.25002 -81.17490 12819 ft 326 kts 336°
2026-04-26 16:05 28.27106 -81.18311 12687 ft 316 kts 345°
2026-04-26 16:05 28.29269 -81.18555 12561 ft 309 kts 356°
2026-04-26 16:05 28.31389 -81.18590 12392 ft 300 kts 356°
2026-04-26 16:06 28.33499 -81.18628 12130 ft 298 kts 356°
2026-04-26 16:06 28.35543 -81.18666 11991 ft 290 kts 356°
2026-04-26 16:06 28.37503 -81.18703 11879 ft 281 kts 356°
2026-04-26 16:06 28.39436 -81.18737 11747 ft 274 kts 356°
2026-04-26 16:07 28.41318 -81.18764 11631 ft 267 kts 356°
2026-04-26 16:07 28.43159 -81.18782 11495 ft 262 kts 356°
2026-04-26 16:07 28.44970 -81.18796 11245 ft 259 kts 356°
2026-04-26 16:07 28.46762 -81.18805 11029 ft 255 kts 356°
2026-04-26 16:08 28.48511 -81.18809 10882 ft 248 kts 356°
2026-04-26 16:08 28.49652 -81.18816 10792 ft 246 kts 356°
2026-04-26 16:08 28.51916 -81.18840 10383 ft 247 kts 356°
2026-04-26 16:08 28.53731 -81.18875 9670 ft 266 kts 355°
2026-04-26 16:09 28.55594 -81.18916 9041 ft 274 kts 356°
2026-04-26 16:09 28.57472 -81.18953 8854 ft 265 kts 356°
2026-04-26 16:09 28.59303 -81.18990 8593 ft 263 kts 355°
2026-04-26 16:09 28.61126 -81.19029 8276 ft 261 kts 356°
2026-04-26 16:10 28.62936 -81.19067 7947 ft 260 kts 356°
2026-04-26 16:10 28.64736 -81.19104 7601 ft 259 kts 356°
2026-04-26 16:10 28.66497 -81.19364 7250 ft 253 kts 336°
2026-04-26 16:10 28.67893 -81.20501 6929 ft 245 kts 306°
2026-04-26 16:11 28.68573 -81.22246 6419 ft 244 kts 276°
2026-04-26 16:11 28.68536 -81.24177 5795 ft 245 kts 264°
2026-04-26 16:11 28.68327 -81.26077 5181 ft 245 kts 257°
2026-04-26 16:11 28.67625 -81.27862 4556 ft 247 kts 231°
2026-04-26 16:12 28.66260 -81.29001 3933 ft 250 kts 207°
2026-04-26 16:12 28.64640 -81.29763 3325 ft 251 kts 203°
2026-04-26 16:12 28.61559 -81.31107 2989 ft 217 kts 203°
2026-04-26 16:13 28.60207 -81.31700 3003 ft 202 kts 203°
2026-04-26 16:13 28.58911 -81.32261 2993 ft 197 kts 203°
2026-04-26 16:13 28.57602 -81.32695 2873 ft 197 kts 193°
2026-04-26 16:13 28.56273 -81.32836 2752 ft 188 kts 184°
2026-04-26 16:14 28.55003 -81.32795 2506 ft 176 kts 181°
2026-04-26 16:14 28.53880 -81.32785 2400 ft 149 kts 183°
2026-04-26 16:14 28.51861 -81.32740 1673 ft 144 kts 182°
2026-04-26 16:15 28.50865 -81.32738 1277 ft 141 kts 184°
2026-04-26 16:15 28.49908 -81.32759 1041 ft 133 kts 181°
2026-04-26 16:15 28.48979 -81.32736 881 ft 131 kts 183°
2026-04-26 16:16 28.47220 -81.32734 624 ft 122 kts 182°
2026-04-26 16:16 28.46371 -81.32712 434 ft 121 kts 183°
2026-04-26 16:16 28.45533 -81.32709 276 ft 121 kts 182°
2026-04-26 16:16 28.44693 -81.32690 138 ft 121 kts 180°
2026-04-26 16:17 28.43950 -81.32690 99 ft 85 kts 179°
2026-04-26 16:17 28.43659 -81.32685 101 ft 8 kts 178°
2026-04-26 16:17 28.43566 -81.32683 99 ft 21 kts 179°
2026-04-26 16:17 28.43392 -81.32679 101 ft 26 kts 178°
2026-04-26 16:18 28.43222 -81.32672 101 ft 23 kts 176°
2026-04-26 16:18 28.43059 -81.32485 98 ft 12 kts 91°
2026-04-26 16:19 28.43058 -81.32336 98 ft 0 kts 89°
2026-04-26 16:20 28.43060 -81.32256 97 ft 20 kts 88°
2026-04-26 16:21 28.43067 -81.32088 97 ft 17 kts 80°
2026-04-26 16:21 28.43117 -81.31996 100 ft 11 kts 66°
2026-04-26 16:21 28.43066 -81.31953 99 ft 13 kts 139°
2026-04-26 16:21 28.43006 -81.31858 98 ft 15 kts 116°
2026-04-26 16:22 28.42949 -81.31752 98 ft 15 kts 123°
2026-04-26 16:22 28.42905 -81.31701 96 ft 0 kts 150°
2026-04-26 16:22 28.42897 -81.31697 96 ft 5 kts 155°
2026-04-26 16:23 28.42921 -81.31658 95 ft 14 kts 42°
2026-04-26 16:23 28.42953 -81.31537 95 ft 16 kts 107°
2026-04-26 16:23 28.42891 -81.31460 94 ft 11 kts 126°
2026-04-26 16:23 28.42887 -81.31451 95 ft 1 kts 113°
2026-04-26 16:24 28.42903 -81.31456 96 ft 8 kts 321°
2026-04-26 16:24 28.42948 -81.31530 95 ft 13 kts 291°
2026-04-26 16:24 28.42941 -81.31632 95 ft 14 kts 244°
2026-04-26 16:24 28.42883 -81.31641 95 ft 8 kts 139°
2026-04-26 16:25 28.42869 -81.31617 95 ft 0 kts 128°